Wind_Speed
37 35 34 34 32 28 25 23 23 22 19 19 15 12 8 6 3 1 2 3 3 4 5 4 4 4 4 2 3 4 3 5 5 4 2 2 1 3 2 4 2 2 2 3 4 4 4 23 5 5 7 23 27 32
39 37 35 36 35 33 31 28 25 23 19 21 18 14 10 8 5 2 1 2 3 3 4 3 6 4 5 5 2 1 2 1 1 2 1 1 2 2 3 2 3 3 4 3 4 4 7 14 4 10 19 24 29 32
39 38 36 36 37 38 36 33 29 25 21 18 20 16 12 10 7 5 1 1 1 3 3 4 3 3 3 5 6 4 3 3 3 1 2 2 2 2 1 4 1 3 5 2 3 1 12 26 6 30 28 28 33 33
40 38 38 37 37 40 41 38 32 28 23 20 22 19 14 11 9 5 3 3 2 2 3 3 3 3 3 4 6 8 5 4 2 3 3 2 2 4 3 3 3 4 5 3 5 8 17 4 29 30 29 30 30 32
44 42 40 39 39 40 41 40 37 33 26 23 20 19 16 14 9 6 5 5 5 3 3 4 3 6 5 6 6 7 8 7 4 2 3 2 3 1 3 2 3 6 5 3 4 2 5 18 29 21 26 30 30 32
44 42 44 40 39 41 43 41 40 37 29 25 23 21 18 12 10 5 3 6 7 7 3 1 2 3 4 4 5 6 9 7 5 2 4 3 2 0 1 2 4 8 5 7 7 19 22 22 15 18 23 25 25 25
47 42 46 37 43 42 44 42 42 38 32 27 27 23 20 14 11 6 3 5 9 5 4 3 2 2 4 4 5 4 4 2 4 3 3 1 3 3 1 3 2 7 7 11 15 14 11 11 18 20 20 21 21 21
50 44 39 36 44 46 48 43 46 38 33 31 29 24 18 14 11 6 4 7 8 4 3 3 1 2 2 2 2 3 2 3 4 2 2 3 3 3 3 10 7 8 10 12 6 10 15 16 16 17 17 19 20 22
50 50 46 38 40 50 55 52 48 38 38 37 28 25 19 11 8 7 8 7 6 4 4 3 3 3 2 2 1 2 3 1 2 2 2 2 2 4 7 8 8 7 7 8 8 7 7 11 14 15 17 18 20 21
44 45 47 45 51 58 59 53 45 46 43 37 30 9 6 8 8 11 5 3 4 4 3 3 4 1 1 1 2 1 3 1 0 2 1 1 3 15 11 7 6 6 5 6 8 7 9 11 15 16 16 15 16 18
38 47 48 54 58 62 61 52 53 50 42 32 10 5 16 14 8 4 3 3 3 1 4 4 4 4 2 2 2 2 2 1 2 3 2 3 3 4 5 4 4 4 4 4 5 6 8 11 14 15 14 14 14 15
27 41 52 57 63 66 60 56 58 53 36 25 13 21 16 5 3 2 1 1 3 3 6 6 4 4 4 2 2 2 2 3 3 1 3 3 4 6 5 3 4 5 4 4 4 4 6 8 9 11 12 12 13 14
26 40 54 64 68 67 57 59 53 48 35 23 6 6 6 4 2 5 6 3 2 9 10 8 5 4 4 2 2 3 3 3 3 2 3 4 4 6 6 5 6 6 5 5 4 4 5 7 7 9 11 10 10 11
33 50 63 70 67 59 61 58 51 42 26 5 6 5 4 3 4 3 3 3 5 7 17 13 8 4 3 2 2 3 3 2 3 1 5 3 6 7 7 6 7 7 6 6 5 4 5 6 6 7 9 9 9 9
61 69 71 66 61 60 56 50 43 36 7 5 6 4 4 5 3 6 12 12 11 19 16 11 7 3 2 3 1 2 4 3 5 4 3 3 8 7 7 8 9 8 8 7 6 5 5 5 5 6 7 8 7 7
67 64 62 63 60 57 51 44 38 13 4 5 4 5 8 6 5 8 9 15 19 19 12 6 4 3 2 3 2 5 5 6 4 5 4 8 10 9 9 9 9 9 8 7 6 6 5 4 4 4 4 5 5 6
61 57 61 59 56 50 44 42 16 5 4 4 3 5 9 5 11 11 13 13 20 16 3 5 4 6 4 2 2 4 5 3 6 6 8 10 11 10 10 10 11 10 9 8 7 7 6 5 4 4 3 2 3 5
57 60 60 57 54 49 35 9 6 5 4 4 5 10 8 6 14 16 12 20 15 9 8 4 7 2 5 5 4 5 13 11 10 11 10 11 12 13 12 13 13 12 11 10 9 8 8 6 6 5 4 4 3 3
68 64 54 49 44 27 7 4 3 5 3 5 10 12 7 9 10 13 14 23 11 10 8 7 3 4 4 10 8 7 8 10 11 11 12 12 13 13 14 14 14 13 12 11 10 9 8 8 7 6 5 5 5 3
59 54 51 44 28 8 7 5 5 4 4 6 9 11 8 7 12 13 20 17 13 6 4 4 9 8 8 7 8 9 10 11 12 13 15 14 14 15 16 16 14 13 12 11 10 9 8 8 7 6 6 5 5 5
58 52 45 29 20 8 7 6 5 5 9 6 15 11 7 13 11 11 14 15 9 6 7 14 18 11 12 13 14 15 16 16 16 15 16 17 15 14 13 14 14 14 12 11 11 10 10 10 8 8 7 6 5 5
46 41 32 15 6 5 6 6 9 10 5 10 11 7 7 6 8 10 9 11 8 11 13 14 15 13 12 15 15 15 14 15 17 16 15 14 16 14 13 12 14 14 13 12 12 11 11 11 10 10 9 7 7 7
43 28 10 5 4 4 6 9 4 4 5 8 8 4 3 5 8 11 5 8 10 12 15 17 16 14 14 14 14 14 14 16 16 15 15 15 16 15 14 13 12 13 13 11 11 11 10 10 10 11 10 9 9 8
26 7 4 3 3 5 8 3 5 6 6 4 3 2 2 5 8 4 3 5 8 6 5 5 6 8 9 11 11 11 11 14 14 14 14 13 13 13 13 12 11 11 11 10 10 10 10 10 10 11 11 10 11 11
6 3 3 4 4 5 4 3 3 3 3 2 3 1 3 5 2 1 3 5 6 5 6 5 5 7 8 8 9 9 11 12 11 10 9 10 10 11 13 12 12 11 11 11 11 11 11 11 11 11 12 13 12 12
5 1 2 3 4 3 5 5 5 5 4 2 2 5 3 3 2 5 4 4 6 7 6 4 5 6 7 9 9 9 9 10 8 8 6 9 10 11 12 12 12 11 10 11 12 12 11 11 12 12 12 12 13 14
4 2 3 5 7 8 6 5 6 4 4 5 5 5 3 2 5 5 5 8 8 7 6 5 5 7 8 9 10 10 9 9 9 9 9 9 10 11 12 13 12 9 10 9 11 11 11 11 11 11 11 12 13 14
4 5 5 8 5 4 5 4 4 6 4 9 13 4 8 8 5 4 6 6 5 7 9 10 10 11 11 12 12 11 11 10 11 11 11 11 11 11 11 11 10 10 9 9 9 10 11 11 12 11 10 11 12 13
4 9 8 4 3 3 4 5 8 6 9 12 6 4 5 6 5 7 7 8 12 15 17 19 21 23 21 18 15 13 12 12 12 12 12 11 11 9 9 10 9 8 8 8 8 9 10 11 11 12 11 10 11 12
5 9 4 3 4 3 3 5 5 8 11 11 6 5 6 11 12 15 18 20 21 19 16 15 14 14 15 15 13 13 12 13 13 13 13 11 10 7 7 8 8 8 8 8 8 9 10 12 12 13 13 14 13 12
10 4 4 3 2 3 7 9 7 8 8 9 14 14 16 13 19 16 11 9 5 4 4 6 8 9 9 11 14 17 15 14 13 13 13 12 11 10 8 9 8 9 9 9 9 10 11 10 11 10 11 12 14 14
5 4 5 3 4 7 7 5 3 2 3 4 5 7 5 5 5 5 4 6 3 2 4 5 7 8 10 10 10 12 15 17 17 15 12 12 12 12 13 11 11 12 12 11 11 11 10 10 11 10 9 10 12 12
5 4 4 4 3 4 4 3 3 2 3 2 2 2 4 4 6 4 4 6 4 3 3 5 7 9 10 11 11 10 11 16 17 16 14 13 11 12 14 14 12 12 13 14 14 14 14 12 12 12 11 11 11 12
Wind_Direction
219 220 220 219 223 225 225 224 228 232 224 222 228 237 234 229 215 181 90 69 61 127 148 182 187 174 167 179 132 325 24 11 16 42 58 286 92 260 41 264 280 178 30 322 336 345 333 360 4 67 283 311 323 330
219 220 221 219 222 225 229 226 229 234 234 222 220 222 222 219 214 218 124 59 48 117 132 193 223 232 245 235 209 165 151 166 62 79 12 19 307 1 171 285 16 352 172 216 181 247 346 354 73 1 349 334 330 331
219 219 220 220 220 224 230 229 227 231 233 223 210 209 215 208 205 217 220 337 31 138 132 156 186 206 223 230 227 173 196 180 172 118 199 229 272 125 283 261 336 301 180 212 12 253 333 323 321 338 342 339 339 342
218 218 220 222 222 225 230 230 228 230 229 213 206 196 203 200 203 214 242 261 222 134 149 181 208 220 224 217 212 218 214 206 249 237 239 165 187 211 247 237 184 225 155 228 256 300 334 177 328 336 335 339 343 348
224 221 224 226 225 227 231 230 229 228 216 205 203 181 192 199 199 211 234 234 222 203 157 155 209 243 244 219 216 224 239 244 242 225 209 241 244 326 324 20 276 194 204 152 252 337 295 299 319 335 334 338 345 342
228 227 226 228 231 231 229 227 219 214 199 197 177 182 186 193 195 196 202 223 202 188 177 133 196 217 211 218 233 240 245 242 227 254 249 248 245 236 86 240 261 203 218 265 291 304 305 309 321 337 336 342 344 340
229 228 233 239 234 233 228 226 214 201 190 178 173 185 185 192 189 186 189 161 173 182 182 127 211 197 214 241 257 230 243 193 219 246 234 267 209 228 213 240 235 219 264 285 301 310 317 325 325 339 343 342 343 348
224 230 229 235 236 231 224 221 204 192 179 166 181 178 178 179 184 206 210 183 183 189 187 124 257 178 196 197 217 191 244 207 218 256 248 211 193 226 261 245 246 263 293 304 296 307 303 316 329 341 343 348 350 355
222 224 232 228 230 222 210 200 193 180 164 172 174 174 173 182 180 192 184 187 202 196 182 163 149 212 162 152 240 212 226 16 179 228 248 187 270 238 231 245 238 273 289 296 310 316 321 330 340 348 351 352 354 356
220 219 220 223 219 204 198 191 182 163 163 175 167 150 151 167 155 153 152 180 180 197 193 164 159 164 109 143 138 309 198 207 207 257 287 162 260 265 268 247 266 286 291 306 330 351 348 349 350 352 353 350 349 352
215 221 224 218 206 194 190 178 167 165 171 160 151 122 139 144 140 161 153 182 182 193 194 159 167 138 112 119 187 55 195 316 41 269 125 291 281 254 234 223 257 267 274 293 315 339 341 334 335 341 347 348 348 353
211 216 212 201 193 188 180 171 168 171 169 170 148 127 134 154 144 132 220 189 208 209 159 154 132 126 111 128 116 59 120 40 241 309 70 280 253 252 226 243 255 256 268 277 297 326 332 333 337 341 340 345 348 348
212 208 198 189 185 178 173 167 169 174 164 139 96 117 143 148 166 188 193 243 212 174 170 157 125 120 116 143 106 78 77 228 305 50 231 226 276 261 243 248 255 255 262 269 284 311 322 328 332 338 340 342 343 349
202 194 186 178 171 165 165 169 174 172 147 99 140 137 201 179 235 190 181 147 142 158 151 136 112 120 129 114 132 93 245 62 17 297 239 252 304 278 246 250 255 255 258 268 278 296 311 321 331 341 343 346 345 347
177 171 166 167 159 164 165 170 172 165 101 136 154 177 189 149 122 134 128 127 131 150 144 114 95 110 89 76 124 77 22 266 212 232 232 259 312 278 249 254 259 259 259 264 275 287 296 306 321 334 351 358 1 5
153 154 158 156 161 162 165 166 165 130 103 146 157 118 135 127 139 149 151 144 149 156 129 109 105 68 274 149 113 210 151 224 244 219 253 303 303 278 257 257 260 264 265 267 271 277 280 287 300 316 342 360 14 18
152 143 155 158 162 162 164 158 129 101 140 154 115 147 157 126 164 167 170 172 165 158 136 131 105 199 110 55 251 201 212 219 216 248 291 298 296 287 267 259 260 261 262 263 263 267 271 272 272 277 280 302 2 17
149 151 158 161 159 155 144 113 103 130 138 136 160 159 151 140 154 162 175 170 162 173 160 179 137 138 193 188 230 234 232 247 261 279 282 287 289 286 270 261 259 260 261 260 259 258 262 260 257 261 254 254 277 327
156 161 161 159 155 135 108 113 128 119 116 136 132 144 132 142 164 177 174 174 176 166 158 164 115 199 226 217 231 239 241 251 275 285 287 290 291 286 270 258 257 260 260 259 257 255 256 259 257 254 249 245 250 267
157 156 160 152 145 98 99 107 141 125 127 137 146 147 137 141 150 160 172 180 175 178 187 199 216 218 219 239 249 266 276 279 277 280 284 293 295 286 271 257 257 260 258 255 253 250 247 251 252 246 241 241 246 252
154 154 152 140 101 94 102 119 96 100 129 139 145 142 119 140 138 164 179 186 197 228 235 235 239 254 254 263 271 278 282 278 274 275 283 288 290 283 276 257 251 253 257 259 257 251 245 250 245 245 239 237 232 232
140 146 131 126 80 88 86 102 123 128 133 139 144 133 135 159 158 174 172 197 238 234 225 252 268 269 264 268 274 277 282 277 274 275 274 271 269 276 273 269 254 255 256 259 259 255 252 249 247 242 237 226 215 210
137 131 97 82 106 84 109 126 108 105 122 164 140 103 147 153 170 165 211 229 249 255 250 251 263 275 275 276 281 285 286 283 283 280 273 264 260 262 268 269 265 256 254 255 257 254 250 242 243 239 230 223 215 210
127 103 122 124 95 114 138 106 104 107 118 160 132 131 182 149 155 177 243 247 245 245 244 255 255 262 278 289 296 290 289 289 289 277 266 261 259 257 265 270 269 259 253 251 249 250 248 244 239 237 229 224 219 212
111 67 137 71 125 125 103 100 97 117 128 181 118 170 176 164 112 184 235 265 261 242 215 212 252 278 292 299 293 296 301 301 291 275 254 252 259 260 261 262 267 260 253 254 251 250 249 244 238 237 231 222 219 215
88 98 78 129 144 126 153 132 174 164 135 126 121 135 150 118 103 236 228 226 225 211 215 254 284 296 297 290 297 301 302 294 286 274 266 263 266 266 266 263 267 264 260 255 247 243 243 241 238 234 231 223 219 221
126 157 122 119 128 130 100 96 131 129 157 170 170 159 128 152 237 243 213 218 224 227 251 267 279 290 300 298 296 294 293 285 282 285 280 276 271 262 256 257 261 260 252 248 246 240 236 235 236 231 229 223 218 217
103 135 146 139 110 138 132 138 154 184 179 168 147 167 170 192 227 189 194 200 229 257 265 271 279 288 295 297 293 288 285 285 283 280 281 276 269 261 257 252 249 247 246 241 242 232 226 225 226 226 225 223 217 215
87 126 128 96 118 148 184 177 188 177 167 170 160 191 223 215 208 202 232 260 275 277 275 275 276 279 280 278 275 273 271 273 277 279 283 282 278 273 265 243 233 245 240 242 244 231 223 221 220 222 218 216 213 212
145 157 124 128 140 205 174 166 175 181 189 191 208 237 250 256 262 270 282 283 281 281 280 284 288 286 278 268 263 258 262 262 265 271 273 271 273 272 257 238 231 240 239 245 241 225 220 215 217 220 214 210 209 210
141 130 99 94 126 169 176 179 182 197 212 229 237 251 264 280 287 289 271 256 237 243 284 298 303 308 307 290 267 255 255 263 262 263 265 260 256 255 255 248 232 226 231 235 230 224 222 217 210 209 208 206 206 207
144 163 164 141 163 163 161 185 201 232 243 232 241 230 257 262 262 251 224 194 206 269 306 309 310 313 318 318 308 279 259 248 247 246 249 254 254 250 246 247 246 238 226 222 220 217 216 214 210 207 203 203 201 200
137 144 111 111 123 163 173 174 198 233 236 246 257 258 235 246 257 236 212 206 217 249 315 335 338 333 325 313 308 296 272 252 247 243 242 249 256 250 244 241 241 238 233 228 221 214 213 215 210 201 199 202 204 204
Height
1491 1497 1502 1508 1513 1518 1522 1524 1527 1531 1536 1539 1542 1543 1545 1546 1547 1548 1548 1547 1548 1548 1551 1552 1554 1555 1556 1556 1559 1556 1557 1555 1554 1560 1560 1563 1564 1556 1557 1544 1547 1556 1554 1546 1535 1543 1535 1518 1513 1521 1524 1511 1505 1496
1484 1490 1496 1502 1507 1513 1516 1520 1522 1527 1530 1535 1539 1541 1542 1544 1545 1546 1547 1547 1548 1548 1551 1552 1552 1553 1554 1555 1555 1556 1557 1556 1556 1560 1561 1561 1556 1555 1560 1558 1542 1552 1547 1551 1542 1530 1522 1522 1521 1521 1518 1511 1503 1496
1477 1483 1489 1495 1500 1506 1510 1514 1517 1521 1525 1530 1534 1538 1540 1541 1543 1545 1546 1547 1547 1548 1550 1551 1551 1552 1553 1553 1555 1557 1557 1556 1556 1556 1557 1558 1562 1552 1559 1552 1548 1540 1539 1542 1538 1524 1522 1519 1519 1516 1513 1509 1502 1496
1469 1475 1482 1487 1493 1498 1502 1507 1511 1516 1520 1525 1529 1533 1537 1539 1540 1542 1544 1545 1547 1547 1549 1551 1551 1551 1551 1552 1552 1553 1555 1555 1556 1555 1555 1556 1559 1549 1552 1545 1546 1540 1538 1536 1531 1523 1520 1516 1516 1514 1508 1505 1500 1494
1460 1467 1474 1480 1485 1491 1496 1501 1507 1510 1516 1520 1526 1531 1534 1535 1538 1540 1541 1542 1544 1548 1548 1548 1548 1549 1550 1550 1551 1552 1553 1554 1554 1555 1555 1555 1550 1549 1546 1545 1547 1534 1533 1538 1532 1526 1525 1520 1516 1513 1508 1503 1497 1493
1452 1459 1464 1472 1478 1482 1487 1493 1500 1506 1513 1517 1523 1529 1531 1534 1537 1538 1540 1541 1541 1544 1545 1547 1547 1546 1548 1549 1550 1551 1552 1552 1553 1553 1552 1549 1549 1549 1554 1554 1531 1529 1529 1529 1528 1525 1522 1518 1516 1514 1509 1503 1499 1494
1444 1451 1458 1464 1469 1475 1481 1488 1495 1501 1510 1514 1522 1527 1529 1532 1535 1537 1539 1540 1540 1542 1543 1546 1545 1546 1547 1547 1548 1548 1549 1549 1550 1550 1549 1547 1547 1548 1546 1547 1529 1530 1529 1528 1526 1522 1518 1516 1513 1510 1507 1503 1499 1495
1434 1442 1450 1457 1462 1467 1473 1480 1489 1498 1508 1516 1520 1523 1528 1530 1533 1536 1537 1537 1539 1541 1542 1543 1545 1546 1546 1546 1548 1548 1549 1547 1547 1547 1547 1546 1546 1544 1545 1527 1527 1528 1527 1525 1524 1523 1519 1516 1513 1509 1506 1502 1498 1493
1424 1434 1442 1447 1453 1458 1465 1473 1482 1495 1505 1510 1517 1520 1525 1530 1532 1533 1536 1537 1539 1542 1539 1540 1543 1549 1545 1545 1547 1548 1548 1548 1547 1546 1546 1547 1544 1544 1526 1523 1523 1524 1524 1522 1522 1520 1517 1515 1511 1508 1505 1501 1499 1495
1413 1424 1433 1438 1444 1451 1459 1469 1481 1492 1499 1504 1515 1522 1525 1528 1530 1534 1536 1536 1538 1538 1538 1538 1539 1542 1543 1543 1545 1547 1545 1546 1551 1547 1546 1547 1540 1527 1524 1522 1522 1522 1522 1520 1519 1518 1515 1512 1510 1507 1505 1503 1500 1496
1405 1414 1420 1425 1433 1443 1453 1464 1475 1486 1496 1505 1514 1519 1524 1527 1531 1533 1534 1536 1536 1536 1535 1536 1537 1538 1542 1544 1544 1546 1546 1546 1558 1549 1549 1550 1541 1525 1522 1521 1521 1520 1520 1519 1518 1516 1515 1513 1510 1508 1505 1503 1500 1497
1398 1405 1411 1417 1427 1435 1448 1458 1467 1478 1491 1502 1509 1517 1525 1529 1531 1533 1535 1535 1534 1531 1532 1534 1536 1538 1541 1544 1543 1545 1548 1550 1559 1545 1550 1554 1527 1524 1522 1521 1521 1520 1519 1518 1517 1515 1514 1512 1510 1508 1506 1503 1500 1497
1393 1399 1405 1413 1422 1432 1445 1458 1467 1476 1488 1503 1510 1517 1520 1528 1530 1531 1530 1531 1531 1527 1529 1531 1535 1538 1540 1544 1544 1544 1552 1553 1544 1551 1547 1532 1521 1522 1520 1519 1520 1519 1518 1517 1515 1514 1513 1512 1510 1508 1506 1503 1501 1498
1388 1395 1402 1413 1422 1433 1442 1456 1467 1479 1492 1501 1507 1515 1516 1521 1518 1515 1516 1517 1521 1523 1525 1527 1531 1537 1538 1541 1543 1549 1546 1545 1558 1555 1540 1520 1519 1519 1519 1518 1520 1518 1517 1515 1514 1513 1512 1511 1509 1508 1506 1504 1502 1499
1390 1397 1406 1417 1427 1436 1448 1460 1471 1481 1491 1499 1502 1504 1511 1511 1512 1514 1515 1517 1520 1525 1528 1529 1534 1537 1539 1541 1542 1545 1553 1555 1541 1535 1521 1516 1516 1516 1516 1515 1518 1517 1515 1514 1512 1511 1511 1510 1509 1507 1506 1504 1503 1500
1398 1407 1415 1423 1431 1441 1452 1464 1475 1484 1493 1496 1498 1501 1505 1508 1513 1515 1517 1519 1521 1526 1527 1528 1534 1540 1543 1541 1544 1549 1550 1542 1525 1516 1514 1513 1514 1513 1512 1513 1514 1514 1513 1512 1510 1510 1509 1508 1508 1507 1506 1505 1503 1501
1404 1415 1422 1428 1435 1447 1458 1465 1477 1487 1493 1495 1495 1495 1501 1499 1500 1512 1515 1518 1522 1525 1526 1528 1537 1538 1537 1547 1542 1533 1530 1514 1509 1510 1510 1511 1511 1511 1509 1510 1511 1511 1511 1510 1509 1508 1508 1507 1506 1506 1506 1505 1504 1502
1406 1419 1423 1428 1436 1450 1462 1471 1481 1486 1489 1492 1495 1496 1497 1498 1500 1506 1514 1518 1520 1521 1523 1525 1526 1535 1537 1539 1526 1512 1509 1509 1507 1507 1506 1507 1508 1507 1507 1507 1507 1507 1507 1507 1506 1506 1506 1505 1505 1504 1504 1504 1504 1503
1405 1415 1427 1437 1444 1454 1467 1478 1482 1485 1490 1491 1492 1494 1497 1501 1503 1506 1510 1515 1517 1518 1520 1522 1526 1527 1518 1509 1504 1505 1506 1507 1505 1504 1504 1503 1503 1503 1504 1504 1504 1504 1504 1503 1503 1503 1503 1503 1503 1503 1502 1502 1502 1502
1415 1426 1433 1440 1449 1456 1468 1477 1482 1483 1487 1489 1493 1497 1499 1502 1504 1506 1510 1515 1517 1518 1516 1514 1508 1502 1501 1500 1502 1504 1503 1503 1502 1500 1499 1499 1500 1499 1499 1500 1500 1500 1500 1500 1500 1500 1500 1501 1501 1501 1501 1500 1500 1500
1422 1432 1437 1444 1451 1458 1467 1474 1479 1484 1488 1491 1494 1496 1499 1502 1504 1508 1511 1514 1516 1511 1504 1498 1496 1496 1496 1497 1500 1500 1499 1497 1497 1494 1494 1494 1496 1496 1495 1495 1496 1496 1496 1496 1496 1497 1498 1497 1498 1498 1498 1498 1499 1499
1425 1435 1443 1451 1456 1462 1468 1473 1478 1483 1489 1491 1494 1494 1497 1501 1504 1506 1508 1511 1506 1495 1495 1492 1492 1493 1493 1494 1495 1495 1494 1493 1491 1488 1489 1490 1491 1491 1492 1492 1492 1491 1492 1493 1493 1493 1494 1494 1495 1495 1496 1496 1497 1498
1431 1441 1449 1455 1460 1465 1474 1475 1478 1483 1489 1493 1494 1495 1498 1498 1499 1502 1503 1500 1491 1487 1488 1488 1489 1489 1490 1490 1489 1490 1489 1489 1485 1484 1484 1486 1486 1487 1487 1488 1487 1487 1488 1489 1489 1490 1490 1491 1491 1492 1493 1494 1495 1496
1439 1446 1454 1455 1459 1469 1473 1474 1477 1482 1488 1491 1493 1496 1498 1496 1497 1498 1496 1488 1483 1484 1485 1485 1486 1488 1487 1485 1485 1486 1485 1482 1480 1479 1480 1481 1481 1482 1483 1483 1483 1484 1484 1485 1486 1486 1487 1487 1488 1489 1490 1491 1492 1494
1442 1452 1456 1458 1461 1464 1468 1473 1478 1482 1487 1489 1493 1495 1494 1495 1496 1496 1490 1481 1480 1481 1482 1483 1484 1483 1482 1482 1483 1482 1480 1478 1476 1475 1476 1477 1478 1478 1479 1479 1479 1480 1481 1481 1482 1483 1484 1484 1485 1486 1487 1488 1490 1492
1447 1453 1454 1454 1459 1459 1465 1470 1474 1478 1483 1487 1488 1491 1492 1493 1496 1489 1480 1475 1477 1480 1480 1479 1479 1478 1479 1480 1478 1477 1476 1474 1473 1472 1473 1473 1474 1474 1475 1475 1476 1477 1477 1478 1478 1479 1480 1481 1482 1483 1484 1485 1487 1489
1448 1451 1451 1453 1455 1456 1461 1465 1469 1473 1479 1481 1484 1488 1489 1492 1489 1473 1471 1473 1476 1476 1475 1474 1475 1476 1476 1475 1475 1474 1473 1471 1471 1470 1470 1470 1470 1471 1471 1472 1472 1474 1474 1474 1474 1475 1477 1478 1479 1480 1481 1482 1484 1486
1442 1445 1449 1453 1453 1457 1461 1464 1466 1468 1470 1472 1473 1478 1479 1476 1471 1467 1469 1471 1472 1472 1471 1472 1472 1471 1471 1471 1470 1469 1469 1468 1467 1467 1466 1467 1467 1467 1468 1468 1469 1470 1470 1471 1471 1472 1473 1475 1476 1477 1479 1480 1482 1484
1441 1444 1449 1453 1455 1456 1457 1458 1459 1463 1464 1462 1463 1467 1466 1464 1464 1465 1467 1467 1467 1467 1467 1467 1466 1464 1464 1464 1464 1464 1464 1464 1464 1464 1464 1464 1464 1465 1464 1465 1466 1467 1468 1468 1469 1470 1471 1472 1474 1475 1476 1478 1480 1482
1446 1448 1450 1452 1454 1456 1456 1456 1458 1459 1460 1461 1461 1462 1461 1460 1461 1461 1461 1461 1460 1460 1459 1458 1458 1457 1457 1457 1457 1458 1459 1460 1460 1461 1461 1461 1462 1462 1462 1462 1463 1464 1465 1466 1466 1467 1468 1469 1471 1472 1473 1475 1477 1479
1444 1446 1447 1450 1452 1454 1455 1457 1458 1459 1458 1458 1458 1458 1458 1457 1455 1453 1452 1453 1453 1454 1454 1454 1454 1453 1452 1451 1451 1452 1454 1455 1456 1457 1457 1457 1458 1459 1460 1460 1460 1461 1462 1463 1464 1465 1466 1467 1469 1470 1471 1473 1475 1477
1444 1446 1450 1453 1455 1455 1456 1456 1455 1455 1455 1455 1455 1455 1456 1455 1452 1449 1448 1449 1450 1451 1452 1452 1451 1450 1449 1448 1447 1446 1447 1449 1450 1452 1453 1453 1454 1455 1456 1457 1457 1458 1459 1460 1462 1463 1464 1466 1467 1468 1469 1471 1473 1475
1447 1447 1448 1448 1451 1452 1454 1455 1455 1456 1455 1454 1453 1453 1452 1452 1448 1446 1446 1447 1449 1449 1449 1449 1449 1448 1447 1446 1444 1443 1443 1443 1445 1446 1448 1449 1450 1451 1451 1453 1454 1454 1455 1457 1458 1460 1462 1463 1465 1467 1468 1470 1471 1473